When you browse on this site, cookies collect data to enhance your experience and personalize the content and advertising you see.
Visit our Privacy Policy to learn more. By continuing to use the site, you agree to this use of cookies and data.

Hourly Weather Zapatoca

Today, 13 August, Thursday

Time Temperature Precipitation Wind Pressure Humidity
00:00 +16°C° 0.4 mm 1 mps 613 mmHg 89%
01:00 +16°C° 0 mm 1 mps 613 mmHg 89%
02:00 +16°C° 0.6 mm 1 mps 612 mmHg 89%
03:00 +15°C° 0.6 mm 1 mps 612 mmHg 89%
04:00 +15°C° 0.6 mm 1 mps 612 mmHg 89%
05:00 +15°C° 0.3 mm 1 mps 612 mmHg 88%
06:00 +16°C° 0.3 mm 1 mps 613 mmHg 87%
07:00 +18°C° 0 mm 1 mps 614 mmHg 84%
08:00 +19°C° 0.3 mm 1 mps 614 mmHg 81%
09:00 +20°C° 0.3 mm 1 mps 615 mmHg 78%
10:00 +20°C° 0.3 mm 2 mps 615 mmHg 74%
11:00 +20°C° 0.3 mm 2 mps 615 mmHg 74%
12:00 +20°C° 0.3 mm 2 mps 614 mmHg 73%
13:00 +20°C° 0.3 mm 2 mps 614 mmHg 73%
14:00 +20°C° 0 mm 2 mps 613 mmHg 71%
15:00 +21°C° 0 mm 1 mps 612 mmHg 68%
16:00 +21°C° 0 mm 1 mps 612 mmHg 66%
17:00 +20°C° 0 mm 1 mps 612 mmHg 70%
18:00 +19°C° 0 mm 1 mps 612 mmHg 74%
19:00 +18°C° 0 mm 1 mps 612 mmHg 77%
20:00 +16°C° 0 mm 1 mps 612 mmHg 76%
21:00 +16°C° 0 mm 1 mps 612 mmHg 74%
22:00 +16°C° 0 mm 1 mps 613 mmHg 73%
23:00 +15°C° 0.2 mm 1 mps 613 mmHg 74%

Tomorrow, 14 August, Friday

Time Temperature Precipitation Wind Pressure Humidity
00:00 +15°C° 0.2 mm 1 mps 612 mmHg 75%
01:00 +15°C° 0.2 mm 1 mps 612 mmHg 76%
02:00 +15°C° 0.1 mm 1 mps 612 mmHg 77%
03:00 +14°C° 0.1 mm 1 mps 611 mmHg 79%
04:00 +14°C° 0.1 mm 2 mps 611 mmHg 80%
05:00 +15°C° 0 mm 1 mps 612 mmHg 80%
06:00 +15°C° 0 mm 1 mps 612 mmHg 79%
07:00 +16°C° 0 mm 1 mps 613 mmHg 79%
08:00 +19°C° 0 mm 1 mps 613 mmHg 73%
09:00 +21°C° 0 mm 1 mps 614 mmHg 66%
10:00 +23°C° 0 mm 1 mps 615 mmHg 60%
11:00 +23°C° 0.1 mm 1 mps 614 mmHg 62%
12:00 +24°C° 0.1 mm 2 mps 614 mmHg 64%
13:00 +24°C° 0.1 mm 2 mps 614 mmHg 66%
14:00 +24°C° 0.5 mm 2 mps 613 mmHg 68%
15:00 +23°C° 0.5 mm 2 mps 613 mmHg 71%
16:00 +23°C° 0.5 mm 1 mps 612 mmHg 73%
17:00 +21°C° 1.6 mm 1 mps 612 mmHg 78%
18:00 +20°C° 1.6 mm 1 mps 612 mmHg 84%
19:00 +19°C° 1.6 mm 1 mps 612 mmHg 89%
20:00 +18°C° 1 mm 1 mps 613 mmHg 91%
21:00 +15°C° 1 mm 0 mps 613 mmHg 92%
22:00 +15°C° 1 mm 0 mps 613 mmHg 94%
23:00 +15°C° 0.7 mm 0 mps 613 mmHg 94%

Day after tomorrow, 15 August, Saturday

Time Temperature Precipitation Wind Pressure Humidity
00:00 +15°C° 0.7 mm 0 mps 613 mmHg 94%
01:00 +14°C° 0.7 mm 0 mps 613 mmHg 94%
02:00 +14°C° 0.8 mm 0 mps 612 mmHg 94%
03:00 +14°C° 0.8 mm 0 mps 612 mmHg 95%
04:00 +14°C° 0.8 mm 0 mps 612 mmHg 95%
05:00 +14°C° 0.5 mm 0 mps 612 mmHg 94%
06:00 +15°C° 0.5 mm 0 mps 613 mmHg 93%
07:00 +15°C° 0.5 mm 0 mps 613 mmHg 93%
08:00 +16°C° 0.4 mm 0 mps 614 mmHg 89%
09:00 +19°C° 0.4 mm 1 mps 614 mmHg 85%
10:00 +20°C° 0.4 mm 1 mps 615 mmHg 82%
11:00 +21°C° 0.6 mm 1 mps 614 mmHg 81%
12:00 +20°C° 0.6 mm 2 mps 614 mmHg 80%
13:00 +21°C° 0.6 mm 2 mps 614 mmHg 79%
14:00 +20°C° 0.7 mm 2 mps 613 mmHg 81%
15:00 +20°C° 0.7 mm 2 mps 613 mmHg 82%
16:00 +21°C° 0.7 mm 1 mps 612 mmHg 84%
17:00 +20°C° 1.2 mm 1 mps 612 mmHg 87%
18:00 +19°C° 1.2 mm 1 mps 613 mmHg 91%
19:00 +18°C° 1.2 mm 1 mps 613 mmHg 94%
20:00 +18°C° 1 mm 1 mps 613 mmHg 93%
21:00 +16°C° 1 mm 1 mps 614 mmHg 93%
22:00 +15°C° 1 mm 0 mps 614 mmHg 93%
23:00 +15°C° 0.8 mm 0 mps 614 mmHg 93%

16 August, Sunday

Time Temperature Precipitation Wind Pressure Humidity
00:00 +15°C° 0.8 mm 0 mps 613 mmHg 93%
01:00 +14°C° 0.8 mm 0 mps 613 mmHg 93%
02:00 +14°C° 0.5 mm 0 mps 613 mmHg 93%
03:00 +14°C° 0.5 mm 0 mps 613 mmHg 93%
04:00 +14°C° 0.5 mm 0 mps 613 mmHg 94%
05:00 +14°C° 0.3 mm 0 mps 613 mmHg 93%
06:00 +15°C° 0.3 mm 0 mps 613 mmHg 92%
07:00 +15°C° 0.3 mm 0 mps 614 mmHg 91%
08:00 +16°C° 0.4 mm 0 mps 614 mmHg 88%
09:00 +17°C° 0.4 mm 0 mps 615 mmHg 84%
10:00 +21°C° 0.4 mm 1 mps 615 mmHg 81%
11:00 +21°C° 0.8 mm 1 mps 615 mmHg 80%
12:00 +21°C° 0.8 mm 1 mps 614 mmHg 79%
13:00 +21°C° 0.8 mm 2 mps 614 mmHg 79%
14:00 +20°C° 1 mm 2 mps 613 mmHg 82%
15:00 +20°C° 1 mm 2 mps 613 mmHg 85%
16:00 +20°C° 1 mm 1 mps 613 mmHg 87%
17:00 +19°C° 3 mm 1 mps 613 mmHg 90%
18:00 +18°C° 3 mm 1 mps 613 mmHg 93%
19:00 +16°C° 3 mm 1 mps 613 mmHg 96%
20:00 +16°C° 1.2 mm 1 mps 613 mmHg 95%
21:00 +16°C° 1.2 mm 1 mps 614 mmHg 94%
22:00 +14°C° 1.2 mm 0 mps 614 mmHg 93%
23:00 +14°C° 0.7 mm 0 mps 614 mmHg 93%

17 August, Monday

Time Temperature Precipitation Wind Pressure Humidity
00:00 +14°C° 0.7 mm 0 mps 613 mmHg 93%
01:00 +14°C° 0.7 mm 0 mps 613 mmHg 93%
02:00 +13°C° 0.1 mm 0 mps 613 mmHg 93%
03:00 +13°C° 0.1 mm 0 mps 613 mmHg 93%
04:00 +13°C° 0.1 mm 0 mps 612 mmHg 92%
05:00 +15°C° 0 mm 1 mps 613 mmHg 91%
06:00 +15°C° 0 mm 1 mps 613 mmHg 90%
07:00 +15°C° 0 mm 1 mps 614 mmHg 90%
08:00 +18°C° 0.1 mm 1 mps 614 mmHg 85%
09:00 +20°C° 0.1 mm 1 mps 615 mmHg 80%
10:00 +21°C° 0.1 mm 1 mps 616 mmHg 75%
11:00 +22°C° 0.4 mm 1 mps 615 mmHg 74%
12:00 +21°C° 0.4 mm 2 mps 615 mmHg 74%
13:00 +21°C° 0.4 mm 2 mps 615 mmHg 73%
14:00 +21°C° 0.7 mm 2 mps 614 mmHg 76%
15:00 +21°C° 0.7 mm 1 mps 613 mmHg 79%
16:00 +21°C° 0.7 mm 1 mps 613 mmHg 83%
17:00 +20°C° 1.2 mm 1 mps 613 mmHg 85%
18:00 +19°C° 1.2 mm 1 mps 613 mmHg 88%
19:00 +18°C° 1.2 mm 1 mps 613 mmHg 91%
20:00 +18°C° 0.4 mm 1 mps 613 mmHg 91%
21:00 +16°C° 0.4 mm 1 mps 614 mmHg 90%
22:00 +16°C° 0.4 mm 1 mps 614 mmHg 90%
23:00 +15°C° 0.3 mm 0 mps 614 mmHg 91%

18 August, Tuesday

Time Temperature Precipitation Wind Pressure Humidity
00:00 +15°C° 0.3 mm 0 mps 613 mmHg 91%
01:00 +14°C° 0.3 mm 0 mps 613 mmHg 92%
02:00 +14°C° 0.2 mm 0 mps 613 mmHg 93%
03:00 +14°C° 0.2 mm 0 mps 612 mmHg 93%
04:00 +14°C° 0.2 mm 0 mps 612 mmHg 94%
05:00 +14°C° 0.3 mm 0 mps 613 mmHg 93%
06:00 +14°C° 0.3 mm 0 mps 613 mmHg 92%
07:00 +15°C° 0.3 mm 0 mps 614 mmHg 92%
08:00 +16°C° 0.3 mm 0 mps 614 mmHg 87%
09:00 +19°C° 0.3 mm 1 mps 615 mmHg 83%
10:00 +20°C° 0.3 mm 1 mps 615 mmHg 79%
11:00 +21°C° 1.1 mm 1 mps 615 mmHg 80%
12:00 +21°C° 1.1 mm 1 mps 614 mmHg 81%
13:00 +20°C° 1.1 mm 2 mps 614 mmHg 82%
14:00 +20°C° 0.7 mm 2 mps 613 mmHg 82%
15:00 +20°C° 0.7 mm 2 mps 613 mmHg 82%
16:00 +20°C° 0.7 mm 2 mps 613 mmHg 81%
17:00 +20°C° 1.1 mm 1 mps 613 mmHg 85%
18:00 +19°C° 1.1 mm 1 mps 613 mmHg 89%
19:00 +18°C° 1.1 mm 1 mps 613 mmHg 94%
20:00 +18°C° 1.6 mm 1 mps 614 mmHg 94%
21:00 +18°C° 1.6 mm 1 mps 614 mmHg 94%
22:00 +16°C° 1.6 mm 1 mps 614 mmHg 94%
23:00 +16°C° 1.5 mm 1 mps 614 mmHg 95%
Show more